Time,TemperatureF,DewpointF,PressureIn,WindDirection,WindDirectionDegrees,WindSpeedMPH,WindSpeedGustMPH,Humidity,HourlyPrecipIn,Conditions,Clouds,dailyrainin,SoftwareType,DateUTC
2013-03-21 00:00:00,37.4,14.7,29.80,NNE,13,0.0,3.6,39,0.00,,---,0.00,VWS V14.01,2013-03-21 04:00:00,
2013-03-21 00:05:00,37.6,14.9,29.80,North,2,5.8,5.8,39,0.00,,---,0.00,VWS V14.01,2013-03-21 04:05:00,
2013-03-21 00:10:00,37.6,14.9,29.80,North,357,0.0,0.0,39,0.00,,---,0.00,VWS V14.01,2013-03-21 04:10:00,
2013-03-21 00:15:00,37.4,14.7,29.80,North,357,0.0,0.0,39,0.00,,---,0.00,VWS V14.01,2013-03-21 04:15:00,
2013-03-21 00:20:00,37.2,15.1,29.80,North,0,0.0,0.0,40,0.00,,---,0.00,VWS V14.01,2013-03-21 04:20:00,
2013-03-21 00:25:00,37.2,15.1,29.80,North,8,3.6,5.8,40,0.00,,---,0.00,VWS V14.01,2013-03-21 04:25:00,
2013-03-21 00:30:00,37.4,14.7,29.80,NNE,31,2.7,7.6,39,0.00,,---,0.00,VWS V14.01,2013-03-21 04:30:00,
2013-03-21 00:35:00,37.2,15.1,29.80,NNW,341,3.1,3.1,40,0.00,,---,0.00,VWS V14.01,2013-03-21 04:35:00,
2013-03-21 00:40:00,37.0,15.0,29.80,North,353,2.2,4.0,40,0.00,,---,0.00,VWS V14.01,2013-03-21 04:40:00,
2013-03-21 00:45:00,37.0,15.0,29.80,North,0,4.0,5.8,40,0.00,,---,0.00,VWS V14.01,2013-03-21 04:45:00,
2013-03-21 00:50:00,36.9,14.8,29.80,NNW,336,4.5,4.5,40,0.00,,---,0.00,VWS V14.01,2013-03-21 04:50:00,
2013-03-21 00:55:00,36.3,14.3,29.80,NNW,338,3.1,3.1,40,0.00,,---,0.00,VWS V14.01,2013-03-21 04:55:00,
2013-03-21 01:00:00,36.1,14.2,29.80,NNW,340,2.7,2.7,40,0.00,,---,0.00,VWS V14.01,2013-03-21 05:00:00,
2013-03-21 01:05:00,36.1,14.2,29.80,North,357,2.7,3.6,40,0.00,,---,0.00,VWS V14.01,2013-03-21 05:05:00,
2013-03-21 01:10:00,36.0,14.0,29.80,North,0,3.1,3.1,40,0.00,,---,0.00,VWS V14.01,2013-03-21 05:10:00,
2013-03-21 01:15:00,35.8,13.8,29.80,NNW,337,5.8,5.8,40,0.00,,---,0.00,VWS V14.01,2013-03-21 05:15:00,
2013-03-21 01:20:00,35.2,13.4,29.80,NNW,338,3.1,3.1,40,0.00,,---,0.00,VWS V14.01,2013-03-21 05:20:00,
2013-03-21 01:25:00,34.9,13.0,29.77,NNW,346,3.1,3.6,40,0.00,,---,0.00,VWS V14.01,2013-03-21 05:25:00,
2013-03-21 01:30:00,34.5,12.7,29.77,North,8,0.0,2.2,40,0.00,,---,0.00,VWS V14.01,2013-03-21 05:30:00,
2013-03-21 01:35:00,34.3,12.5,29.77,NNE,17,0.0,0.0,40,0.00,,---,0.00,VWS V14.01,2013-03-21 05:35:00,
2013-03-21 01:40:00,34.2,12.4,29.80,NNW,344,0.0,0.0,40,0.00,,---,0.00,VWS V14.01,2013-03-21 05:40:00,
2013-03-21 01:45:00,34.0,12.2,29.80,NNE,31,3.1,3.1,40,0.00,,---,0.00,VWS V14.01,2013-03-21 05:45:00,
2013-03-21 01:50:00,33.8,12.1,29.80,NNE,32,0.0,0.0,40,0.00,,---,0.00,VWS V14.01,2013-03-21 05:50:00,
2013-03-21 01:55:00,33.6,12.4,29.80,NNE,24,0.0,0.0,41,0.00,,---,0.00,VWS V14.01,2013-03-21 05:55:00,
2013-03-21 02:00:00,33.6,12.4,29.80,North,11,0.0,0.0,41,0.00,,---,0.00,VWS V14.01,2013-03-21 06:00:00,
2013-03-21 02:05:00,33.6,12.4,29.80,North,5,0.0,0.0,41,0.00,,---,0.00,VWS V14.01,2013-03-21 06:05:00,
2013-03-21 02:10:00,33.8,12.1,29.80,North,8,0.0,0.0,40,0.00,,---,0.00,VWS V14.01,2013-03-21 06:10:00,
2013-03-21 02:15:00,33.8,12.1,29.80,NNE,12,0.0,2.2,40,0.00,,---,0.00,VWS V14.01,2013-03-21 06:15:00,
2013-03-21 02:20:00,34.0,12.2,29.80,North,0,3.1,3.1,40,0.00,,---,0.00,VWS V14.01,2013-03-21 06:20:00,
2013-03-21 02:25:00,33.8,12.1,29.77,North,0,2.2,3.1,40,0.00,,---,0.00,VWS V14.01,2013-03-21 06:25:00,
2013-03-21 02:30:00,33.8,12.1,29.77,North,4,3.1,4.5,40,0.00,,---,0.00,VWS V14.01,2013-03-21 06:30:00,
2013-03-21 02:35:00,33.6,12.4,29.77,NE,50,2.7,2.7,41,0.00,,---,0.00,VWS V14.01,2013-03-21 06:35:00,
2013-03-21 02:40:00,33.3,12.1,29.80,North,9,3.1,4.9,41,0.00,,---,0.00,VWS V14.01,2013-03-21 06:40:00,
2013-03-21 02:45:00,32.9,11.8,29.80,West,275,4.0,4.0,41,0.00,,---,0.00,VWS V14.01,2013-03-21 06:45:00,
2013-03-21 02:50:00,32.7,11.6,29.80,North,353,0.0,4.0,41,0.00,,---,0.00,VWS V14.01,2013-03-21 06:50:00,
2013-03-21 02:55:00,32.5,11.5,29.80,North,8,3.1,3.1,41,0.00,,---,0.00,VWS V14.01,2013-03-21 06:55:00,
2013-03-21 03:00:00,32.5,11.5,29.77,North,353,4.0,4.0,41,0.00,,---,0.00,VWS V14.01,2013-03-21 07:00:00,
2013-03-21 03:05:00,32.4,11.3,29.77,NNW,330,0.0,0.0,41,0.00,,---,0.00,VWS V14.01,2013-03-21 07:05:00,
2013-03-21 03:10:00,32.5,11.5,29.77,NNE,12,0.0,0.0,41,0.00,,---,0.00,VWS V14.01,2013-03-21 07:10:00,
2013-03-21 03:15:00,32.5,12.0,29.77,NNE,28,2.7,3.1,42,0.00,,---,0.00,VWS V14.01,2013-03-21 07:15:00,
2013-03-21 03:20:00,32.5,12.0,29.77,North,6,2.7,3.1,42,0.00,,---,0.00,VWS V14.01,2013-03-21 07:20:00,
2013-03-21 03:25:00,32.5,12.0,29.77,North,3,2.7,2.7,42,0.00,,---,0.00,VWS V14.01,2013-03-21 07:25:00,
2013-03-21 03:30:00,32.4,11.9,29.77,North,0,2.7,2.7,42,0.00,,---,0.00,VWS V14.01,2013-03-21 07:30:00,
2013-03-21 03:35:00,32.4,11.9,29.77,NNW,348,0.0,3.1,42,0.00,,---,0.00,VWS V14.01,2013-03-21 07:35:00,
2013-03-21 03:40:00,32.2,11.7,29.77,North,3,2.7,5.4,42,0.00,,---,0.00,VWS V14.01,2013-03-21 07:40:00,
2013-03-21 03:45:00,32.2,11.7,29.77,NE,48,0.0,3.1,42,0.00,,---,0.00,VWS V14.01,2013-03-21 07:45:00,
2013-03-21 03:50:00,32.2,12.2,29.77,NNE,22,0.0,3.6,43,0.00,,---,0.00,VWS V14.01,2013-03-21 07:50:00,
2013-03-21 03:55:00,32.0,12.1,29.77,North,2,0.0,0.0,43,0.00,,---,0.00,VWS V14.01,2013-03-21 07:55:00,
2013-03-21 04:00:00,32.0,12.1,29.77,NE,38,0.0,0.0,43,0.00,,---,0.00,VWS V14.01,2013-03-21 08:00:00,
2013-03-21 04:05:00,32.2,12.2,29.77,NNE,17,0.0,0.0,43,0.00,,---,0.00,VWS V14.01,2013-03-21 08:05:00,
2013-03-21 04:10:00,32.2,12.2,29.77,NNE,19,0.0,0.0,43,0.00,,---,0.00,VWS V14.01,2013-03-21 08:10:00,
2013-03-21 04:15:00,32.2,12.2,29.77,NNW,346,4.0,4.9,43,0.00,,---,0.00,VWS V14.01,2013-03-21 08:15:00,
2013-03-21 04:20:00,32.2,11.7,29.77,NE,34,3.6,3.6,42,0.00,,---,0.00,VWS V14.01,2013-03-21 08:20:00,
2013-03-21 04:25:00,32.2,11.7,29.77,North,357,2.7,3.6,42,0.00,,---,0.00,VWS V14.01,2013-03-21 08:25:00,
2013-03-21 04:30:00,32.4,12.4,29.74,NNW,346,4.0,4.5,43,0.00,,---,0.00,VWS V14.01,2013-03-21 08:30:00,
2013-03-21 04:35:00,32.4,12.4,29.74,NNE,15,3.1,4.9,43,0.00,,---,0.00,VWS V14.01,2013-03-21 08:35:00,
2013-03-21 04:40:00,32.4,12.4,29.74,North,353,3.6,4.0,43,0.00,,---,0.00,VWS V14.01,2013-03-21 08:40:00,
2013-03-21 04:45:00,32.4,12.9,29.74,NW,314,3.1,4.9,44,0.00,,---,0.00,VWS V14.01,2013-03-21 08:45:00,
2013-03-21 04:50:00,32.2,12.2,29.74,NE,39,2.2,3.1,43,0.00,,---,0.00,VWS V14.01,2013-03-21 08:50:00,
2013-03-21 04:55:00,32.0,11.5,29.74,North,0,2.2,2.7,42,0.00,,---,0.00,VWS V14.01,2013-03-21 08:55:00,
2013-03-21 05:00:00,32.0,11.5,29.74,North,357,2.2,2.2,42,0.00,,---,0.00,VWS V14.01,2013-03-21 09:00:00,
2013-03-21 05:05:00,32.0,11.5,29.74,NNE,33,0.0,0.0,42,0.00,,---,0.00,VWS V14.01,2013-03-21 09:05:00,
2013-03-21 05:10:00,32.0,11.5,29.74,NE,44,0.0,0.0,42,0.00,,---,0.00,VWS V14.01,2013-03-21 09:10:00,
2013-03-21 05:15:00,31.8,10.8,29.74,NNE,24,0.0,2.2,41,0.00,,---,0.00,VWS V14.01,2013-03-21 09:15:00,
2013-03-21 05:20:00,31.8,10.8,29.74,NNE,24,0.0,0.0,41,0.00,,---,0.00,VWS V14.01,2013-03-21 09:20:00,
2013-03-21 05:25:00,31.8,10.8,29.74,North,9,0.0,0.0,41,0.00,,---,0.00,VWS V14.01,2013-03-21 09:25:00,
2013-03-21 05:30:00,31.8,10.8,29.74,North,353,0.0,0.0,41,0.00,,---,0.00,VWS V14.01,2013-03-21 09:30:00,
2013-03-21 05:35:00,31.8,10.8,29.74,North,353,0.0,2.2,41,0.00,,---,0.00,VWS V14.01,2013-03-21 09:35:00,
2013-03-21 05:40:00,31.8,10.8,29.74,NW,324,3.1,4.0,41,0.00,,---,0.00,VWS V14.01,2013-03-21 09:40:00,
2013-03-21 05:45:00,31.8,10.8,29.74,North,8,3.1,3.1,41,0.00,,---,0.00,VWS V14.01,2013-03-21 09:45:00,
2013-03-21 05:50:00,31.6,10.6,29.74,NNW,338,3.1,4.0,41,0.00,,---,0.00,VWS V14.01,2013-03-21 09:50:00,
2013-03-21 05:55:00,31.6,10.6,29.74,North,6,0.0,3.1,41,0.00,,---,0.00,VWS V14.01,2013-03-21 09:55:00,
2013-03-21 06:00:00,31.8,10.8,29.77,North,11,0.0,0.0,41,0.00,,---,0.00,VWS V14.01,2013-03-21 10:00:00,
2013-03-21 06:05:00,31.6,10.6,29.77,North,8,0.0,0.0,41,0.00,,---,0.00,VWS V14.01,2013-03-21 10:05:00,
2013-03-21 06:10:00,31.8,10.8,29.77,NNW,344,0.0,0.0,41,0.00,,---,0.00,VWS V14.01,2013-03-21 10:10:00,
2013-03-21 06:15:00,31.6,10.6,29.77,NNW,329,3.6,3.6,41,0.00,,---,0.00,VWS V14.01,2013-03-21 10:15:00,
2013-03-21 06:20:00,31.5,10.5,29.77,North,6,5.8,5.8,41,0.00,,---,0.00,VWS V14.01,2013-03-21 10:20:00,
2013-03-21 06:25:00,31.3,10.3,29.77,NW,316,4.9,4.9,41,0.00,,---,0.00,VWS V14.01,2013-03-21 10:25:00,
2013-03-21 06:30:00,31.3,10.3,29.77,NNE,23,4.9,4.9,41,0.00,,---,0.00,VWS V14.01,2013-03-21 10:30:00,
2013-03-21 06:35:00,31.1,10.2,29.77,NNE,17,5.4,5.4,41,0.00,,---,0.00,VWS V14.01,2013-03-21 10:35:00,
2013-03-21 06:40:00,30.9,10.0,29.77,North,357,4.9,6.3,41,0.00,,---,0.00,VWS V14.01,2013-03-21 10:40:00,
2013-03-21 06:45:00,30.9,10.0,29.77,NE,34,2.7,2.7,41,0.00,,---,0.00,VWS V14.01,2013-03-21 10:45:00,
2013-03-21 06:50:00,30.9,10.0,29.77,North,8,0.0,3.1,41,0.00,,---,0.00,VWS V14.01,2013-03-21 10:50:00,
2013-03-21 06:55:00,30.7,9.8,29.77,NNE,26,0.0,0.0,41,0.00,,---,0.00,VWS V14.01,2013-03-21 10:55:00,
2013-03-21 07:00:00,30.7,9.8,29.77,ENE,61,4.0,4.0,41,0.00,,---,0.00,VWS V14.01,2013-03-21 11:00:00,
2013-03-21 07:05:00,30.6,9.7,29.77,North,0,3.1,4.0,41,0.00,,---,0.00,VWS V14.01,2013-03-21 11:05:00,
2013-03-21 07:10:00,30.6,9.7,29.77,NNW,346,2.7,5.8,41,0.00,,---,0.00,VWS V14.01,2013-03-21 11:10:00,
2013-03-21 07:15:00,30.2,9.4,29.77,North,353,3.1,4.9,41,0.00,,---,0.00,VWS V14.01,2013-03-21 11:15:00,
2013-03-21 07:20:00,30.0,9.2,29.77,NE,36,4.0,4.5,41,0.00,,---,0.00,VWS V14.01,2013-03-21 11:20:00,
2013-03-21 07:25:00,30.2,9.4,29.77,NNW,333,0.0,3.1,41,0.00,,---,0.00,VWS V14.01,2013-03-21 11:25:00,
2013-03-21 07:30:00,30.0,9.2,29.77,NNE,18,0.0,4.9,41,0.00,,---,0.00,VWS V14.01,2013-03-21 11:30:00,
2013-03-21 07:35:00,30.0,9.2,29.77,North,357,2.7,3.6,41,0.00,,---,0.00,VWS V14.01,2013-03-21 11:35:00,
2013-03-21 07:40:00,30.0,9.2,29.77,North,2,0.0,3.1,41,0.00,,---,0.00,VWS V14.01,2013-03-21 11:40:00,
2013-03-21 07:45:00,30.0,9.2,29.77,NNE,27,2.2,3.1,41,0.00,,---,0.00,VWS V14.01,2013-03-21 11:45:00,
2013-03-21 07:50:00,30.0,9.2,29.77,NE,43,4.0,4.5,41,0.00,,---,0.00,VWS V14.01,2013-03-21 11:50:00,
2013-03-21 07:55:00,30.2,9.4,29.77,NE,55,0.0,0.0,41,0.00,,---,0.00,VWS V14.01,2013-03-21 11:55:00,
2013-03-21 08:00:00,30.4,9.5,29.77,NW,308,4.0,4.9,41,0.00,,---,0.00,VWS V14.01,2013-03-21 12:00:00,
2013-03-21 08:05:00,30.4,9.0,29.77,North,7,3.1,5.8,40,0.00,,---,0.00,VWS V14.01,2013-03-21 12:05:00,
2013-03-21 08:10:00,30.4,9.0,29.77,North,0,5.4,5.4,40,0.00,,---,0.00,VWS V14.01,2013-03-21 12:10:00,
2013-03-21 08:15:00,30.4,9.0,29.77,NNW,343,0.0,3.6,40,0.00,,---,0.00,VWS V14.01,2013-03-21 12:15:00,
2013-03-21 08:20:00,30.4,9.0,29.77,NE,48,6.3,6.3,40,0.00,,---,0.00,VWS V14.01,2013-03-21 12:20:00,
2013-03-21 08:25:00,30.4,9.0,29.77,NNE,33,2.7,2.7,40,0.00,,---,0.00,VWS V14.01,2013-03-21 12:25:00,
2013-03-21 08:30:00,30.2,9.4,29.77,North,0,2.7,5.8,41,0.00,,---,0.00,VWS V14.01,2013-03-21 12:30:00,
2013-03-21 08:35:00,30.4,9.0,29.77,NNW,341,0.0,0.0,40,0.00,,---,0.00,VWS V14.01,2013-03-21 12:35:00,
2013-03-21 08:40:00,30.6,9.1,29.74,North,357,0.0,2.7,40,0.00,,---,0.00,VWS V14.01,2013-03-21 12:40:00,
2013-03-21 08:45:00,30.7,9.3,29.74,North,357,4.0,4.0,40,0.00,,---,0.00,VWS V14.01,2013-03-21 12:45:00,
2013-03-21 08:50:00,30.9,9.4,29.74,NNW,328,3.6,4.9,40,0.00,,---,0.00,VWS V14.01,2013-03-21 12:50:00,
2013-03-21 08:55:00,31.1,9.6,29.74,NE,45,4.9,4.9,40,0.00,,---,0.00,VWS V14.01,2013-03-21 12:55:00,
2013-03-21 09:00:00,31.1,9.6,29.74,North,2,0.0,2.7,40,0.00,,---,0.00,VWS V14.01,2013-03-21 13:00:00,
2013-03-21 09:05:00,31.3,9.8,29.74,North,8,3.1,4.9,40,0.00,,---,0.00,VWS V14.01,2013-03-21 13:05:00,
2013-03-21 09:10:00,31.5,9.9,29.74,North,11,2.7,6.3,40,0.00,,---,0.00,VWS V14.01,2013-03-21 13:10:00,
2013-03-21 09:15:00,31.6,10.1,29.74,NE,34,0.0,4.0,40,0.00,,---,0.00,VWS V14.01,2013-03-21 13:15:00,
2013-03-21 09:20:00,32.2,10.6,29.74,NNE,20,3.6,6.3,40,0.00,,---,0.00,VWS V14.01,2013-03-21 13:20:00,
2013-03-21 09:25:00,32.2,10.6,29.74,NNW,343,3.6,4.0,40,0.00,,---,0.00,VWS V14.01,2013-03-21 13:25:00,
2013-03-21 09:30:00,32.4,10.8,29.74,North,7,3.1,3.1,40,0.00,,---,0.00,VWS V14.01,2013-03-21 13:30:00,
2013-03-21 09:35:00,32.4,10.8,29.74,North,1,6.3,6.3,40,0.00,,---,0.00,VWS V14.01,2013-03-21 13:35:00,
2013-03-21 09:40:00,32.2,10.6,29.74,NE,50,5.4,6.3,40,0.00,,---,0.00,VWS V14.01,2013-03-21 13:40:00,
2013-03-21 09:45:00,32.9,11.2,29.74,North,353,3.6,3.6,40,0.00,,---,0.00,VWS V14.01,2013-03-21 13:45:00,
2013-03-21 09:50:00,33.1,11.4,29.74,NNE,27,0.0,5.8,40,0.00,,---,0.00,VWS V14.01,2013-03-21 13:50:00,
2013-03-21 09:55:00,32.9,11.2,29.74,NNE,26,4.9,8.3,40,0.00,,---,0.00,VWS V14.01,2013-03-21 13:55:00,
2013-03-21 10:00:00,32.7,11.1,29.74,NNE,14,5.8,5.8,40,0.00,,---,0.00,VWS V14.01,2013-03-21 14:00:00,
2013-03-21 10:05:00,32.5,10.9,29.74,NNW,346,6.3,6.3,40,0.00,,---,0.00,VWS V14.01,2013-03-21 14:05:00,
2013-03-21 10:10:00,33.1,11.4,29.74,North,7,5.8,5.8,40,0.00,,---,0.00,VWS V14.01,2013-03-21 14:10:00,
2013-03-21 10:15:00,32.7,11.1,29.74,NNW,341,0.0,6.3,40,0.00,,---,0.00,VWS V14.01,2013-03-21 14:15:00,
2013-03-21 10:19:00,32.9,11.2,29.74,North,357,5.8,6.3,40,0.00,,---,0.00,VWS V14.01,2013-03-21 14:19:00,
2013-03-21 10:24:00,33.3,11.6,29.74,North,357,5.4,7.6,40,0.00,,---,0.00,VWS V14.01,2013-03-21 14:24:00,
2013-03-21 10:29:00,33.6,11.9,29.74,NNE,16,2.7,6.3,40,0.00,,---,0.00,VWS V14.01,2013-03-21 14:29:00,
2013-03-21 10:34:00,34.0,12.2,29.74,NNW,342,3.6,5.8,40,0.00,,---,0.00,VWS V14.01,2013-03-21 14:34:00,
2013-03-21 10:39:00,34.0,12.2,29.74,NNE,29,6.3,8.7,40,0.00,,---,0.00,VWS V14.01,2013-03-21 14:39:00,
2013-03-21 10:44:00,34.2,12.4,29.74,NW,325,4.5,4.5,40,0.00,,---,0.00,VWS V14.01,2013-03-21 14:44:00,
2013-03-21 10:49:00,34.3,12.5,29.74,NNW,331,5.4,6.3,40,0.00,,---,0.00,VWS V14.01,2013-03-21 14:49:00,
2013-03-21 10:54:00,34.3,12.5,29.71,NNW,335,4.0,7.6,40,0.00,,---,0.00,VWS V14.01,2013-03-21 14:54:00,
2013-03-21 10:59:00,34.3,12.5,29.71,NW,318,3.6,5.8,40,0.00,,---,0.00,VWS V14.01,2013-03-21 14:59:00,
2013-03-21 11:04:00,34.5,12.7,29.71,North,3,6.3,8.3,40,0.00,,---,0.00,VWS V14.01,2013-03-21 15:04:00,
2013-03-21 11:09:00,34.5,12.7,29.71,ENE,73,8.3,10.5,40,0.00,,---,0.00,VWS V14.01,2013-03-21 15:09:00,
2013-03-21 11:14:00,34.9,13.0,29.71,North,2,5.4,6.3,40,0.00,,---,0.00,VWS V14.01,2013-03-21 15:14:00,
2013-03-21 11:19:00,35.1,13.2,29.71,NNE,18,5.8,7.6,40,0.00,,---,0.00,VWS V14.01,2013-03-21 15:19:00,
2013-03-21 11:24:00,35.8,13.8,29.71,WNW,295,3.6,4.0,40,0.00,,---,0.00,VWS V14.01,2013-03-21 15:24:00,
2013-03-21 11:29:00,35.8,13.8,29.71,NNW,334,3.6,5.8,40,0.00,,---,0.00,VWS V14.01,2013-03-21 15:29:00,
2013-03-21 11:34:00,35.4,13.5,29.71,NW,312,2.7,6.3,40,0.00,,---,0.00,VWS V14.01,2013-03-21 15:34:00,
2013-03-21 11:39:00,35.4,13.5,29.71,NNE,14,7.6,7.6,40,0.00,,---,0.00,VWS V14.01,2013-03-21 15:39:00,
2013-03-21 11:44:00,35.6,13.7,29.71,NNW,342,0.0,5.4,40,0.00,,---,0.00,VWS V14.01,2013-03-21 15:44:00,
2013-03-21 11:49:00,35.8,13.8,29.71,North,0,3.1,5.8,40,0.00,,---,0.00,VWS V14.01,2013-03-21 15:49:00,
2013-03-21 11:54:00,36.1,14.2,29.71,North,353,3.1,3.1,40,0.00,,---,0.00,VWS V14.01,2013-03-21 15:54:00,
2013-03-21 11:59:00,36.5,14.5,29.71,ENE,60,2.7,4.9,40,0.00,,---,0.00,VWS V14.01,2013-03-21 15:59:00,
2013-03-21 12:04:00,36.7,14.6,29.71,North,0,4.9,8.1,40,0.00,,---,0.00,VWS V14.01,2013-03-21 16:04:00,
2013-03-21 12:09:00,36.3,14.3,29.71,NNE,16,8.1,8.1,40,0.00,,---,0.00,VWS V14.01,2013-03-21 16:09:00,
2013-03-21 12:14:00,36.7,14.6,29.71,North,350,3.1,6.3,40,0.00,,---,0.00,VWS V14.01,2013-03-21 16:14:00,
2013-03-21 12:19:00,37.0,15.0,29.71,North,0,4.9,5.8,40,0.00,,---,0.00,VWS V14.01,2013-03-21 16:19:00,
2013-03-21 12:24:00,37.8,15.0,29.71,NE,43,2.2,3.1,39,0.00,,---,0.00,VWS V14.01,2013-03-21 16:24:00,
2013-03-21 12:29:00,38.5,15.7,29.71,NNW,327,0.0,3.1,39,0.00,,---,0.00,VWS V14.01,2013-03-21 16:29:00,
2013-03-21 12:34:00,38.1,15.4,29.71,NNW,339,3.1,8.3,39,0.00,,---,0.00,VWS V14.01,2013-03-21 16:34:00,
2013-03-21 12:39:00,38.3,15.5,29.71,West,274,3.1,3.6,39,0.00,,---,0.00,VWS V14.01,2013-03-21 16:39:00,
2013-03-21 12:44:00,38.8,16.0,29.68,WNW,303,4.0,5.4,39,0.00,,---,0.00,VWS V14.01,2013-03-21 16:44:00,
2013-03-21 12:49:00,37.9,15.2,29.68,NNW,346,8.1,8.3,39,0.00,,---,0.00,VWS V14.01,2013-03-21 16:49:00,
2013-03-21 12:54:00,38.5,15.7,29.68,NNW,341,5.8,7.6,39,0.00,,---,0.00,VWS V14.01,2013-03-21 16:54:00,
2013-03-21 12:59:00,37.4,14.7,29.68,NNE,22,5.4,5.8,39,0.00,,---,0.00,VWS V14.01,2013-03-21 16:59:00,
2013-03-21 13:04:00,37.6,14.9,29.68,NE,38,5.8,5.8,39,0.00,,---,0.00,VWS V14.01,2013-03-21 17:04:00,
2013-03-21 13:09:00,38.5,15.7,29.68,NE,48,8.3,8.3,39,0.00,,---,0.00,VWS V14.01,2013-03-21 17:09:00,
2013-03-21 13:14:00,38.1,15.4,29.68,NNW,341,0.0,0.0,39,0.00,,---,0.00,VWS V14.01,2013-03-21 17:14:00,
2013-03-21 13:19:00,38.1,15.4,29.68,North,3,4.0,5.8,39,0.00,,---,0.00,VWS V14.01,2013-03-21 17:19:00,
2013-03-21 13:24:00,38.3,15.5,29.68,NNE,26,3.1,6.3,39,0.00,,---,0.00,VWS V14.01,2013-03-21 17:24:00,
2013-03-21 13:29:00,37.9,15.2,29.68,NE,38,5.8,5.8,39,0.00,,---,0.00,VWS V14.01,2013-03-21 17:29:00,
2013-03-21 13:34:00,38.5,15.7,29.68,NNE,12,3.6,8.1,39,0.00,,---,0.00,VWS V14.01,2013-03-21 17:34:00,
2013-03-21 13:39:00,39.2,16.3,29.68,NW,312,3.6,5.4,39,0.00,,---,0.00,VWS V14.01,2013-03-21 17:39:00,
2013-03-21 13:44:00,37.9,15.2,29.68,NNW,340,5.8,8.3,39,0.00,,---,0.00,VWS V14.01,2013-03-21 17:44:00,
2013-03-21 13:49:00,39.0,16.2,29.68,NNW,343,3.1,5.4,39,0.00,,---,0.00,VWS V14.01,2013-03-21 17:49:00,
2013-03-21 13:54:00,38.7,15.9,29.68,NNE,31,3.1,3.1,39,0.00,,---,0.00,VWS V14.01,2013-03-21 17:54:00,
2013-03-21 13:59:00,39.6,16.7,29.68,NNW,346,7.6,7.6,39,0.00,,---,0.00,VWS V14.01,2013-03-21 17:59:00,
2013-03-21 14:04:00,40.3,17.3,29.68,NW,312,3.6,6.3,39,0.00,,---,0.00,VWS V14.01,2013-03-21 18:04:00,
2013-03-21 14:09:00,39.6,16.7,29.68,NW,317,5.8,9.6,39,0.00,,---,0.00,VWS V14.01,2013-03-21 18:09:00,
2013-03-21 14:14:00,39.2,16.3,29.68,West,268,3.1,3.6,39,0.00,,---,0.00,VWS V14.01,2013-03-21 18:14:00,
2013-03-21 14:19:00,39.2,16.3,29.68,NE,41,2.2,2.7,39,0.00,,---,0.00,VWS V14.01,2013-03-21 18:19:00,
2013-03-21 14:24:00,39.9,17.0,29.68,NNW,331,3.6,5.8,39,0.00,,---,0.00,VWS V14.01,2013-03-21 18:24:00,
2013-03-21 14:29:00,41.2,17.5,29.65,WSW,255,2.7,5.4,38,0.00,,---,0.00,VWS V14.01,2013-03-21 18:29:00,
2013-03-21 14:34:00,41.0,17.4,29.65,West,259,8.1,8.1,38,0.00,,---,0.00,VWS V14.01,2013-03-21 18:34:00,
2013-03-21 14:39:00,40.1,17.1,29.65,North,357,3.1,6.3,39,0.00,,---,0.00,VWS V14.01,2013-03-21 18:39:00,
2013-03-21 14:44:00,39.4,16.5,29.65,NW,315,2.7,5.4,39,0.00,,---,0.00,VWS V14.01,2013-03-21 18:44:00,
2013-03-21 14:49:00,39.2,16.3,29.65,NNE,21,2.7,3.6,39,0.00,,---,0.00,VWS V14.01,2013-03-21 18:49:00,
2013-03-21 14:54:00,39.0,16.2,29.65,NW,318,3.6,5.4,39,0.00,,---,0.00,VWS V14.01,2013-03-21 18:54:00,
2013-03-21 14:59:00,40.1,17.1,29.65,West,265,5.8,6.3,39,0.00,,---,0.00,VWS V14.01,2013-03-21 18:59:00,
2013-03-21 15:04:00,39.9,17.0,29.65,WSW,257,8.1,8.1,39,0.00,,---,0.00,VWS V14.01,2013-03-21 19:04:00,
2013-03-21 15:09:00,40.6,17.6,29.65,SW,230,5.8,7.6,39,0.00,,---,0.00,VWS V14.01,2013-03-21 19:09:00,
2013-03-21 15:14:00,40.6,17.6,29.65,NNE,30,4.0,5.4,39,0.00,,---,0.00,VWS V14.01,2013-03-21 19:14:00,
2013-03-21 15:19:00,39.2,16.3,29.65,North,0,5.8,7.2,39,0.00,,---,0.00,VWS V14.01,2013-03-21 19:19:00,
2013-03-21 15:24:00,39.0,16.2,29.65,SW,231,3.6,4.0,39,0.00,,---,0.00,VWS V14.01,2013-03-21 19:24:00,
2013-03-21 15:29:00,38.7,15.9,29.65,NW,317,6.3,8.3,39,0.00,,---,0.00,VWS V14.01,2013-03-21 19:29:00,
2013-03-21 15:34:00,39.6,16.7,29.65,NW,308,2.7,5.4,39,0.00,,---,0.00,VWS V14.01,2013-03-21 19:34:00,
2013-03-21 15:39:00,39.7,16.8,29.65,WSW,237,5.4,5.4,39,0.00,,---,0.00,VWS V14.01,2013-03-21 19:39:00,
2013-03-21 15:44:00,40.3,17.3,29.62,NW,325,2.7,4.0,39,0.00,,---,0.00,VWS V14.01,2013-03-21 19:44:00,
2013-03-21 15:49:00,39.2,16.3,29.62,North,357,8.1,8.1,39,0.00,,---,0.00,VWS V14.01,2013-03-21 19:49:00,
2013-03-21 15:54:00,39.6,16.7,29.62,NW,321,0.0,0.0,39,0.00,,---,0.00,VWS V14.01,2013-03-21 19:54:00,
2013-03-21 15:59:00,40.5,17.5,29.62,WSW,248,0.0,0.0,39,0.00,,---,0.00,VWS V14.01,2013-03-21 19:59:00,
2013-03-21 16:04:00,40.6,17.6,29.62,WSW,240,5.8,6.7,39,0.00,,---,0.00,VWS V14.01,2013-03-21 20:04:00,
2013-03-21 16:09:00,41.5,17.8,29.62,WNW,285,2.7,2.7,38,0.00,,---,0.00,VWS V14.01,2013-03-21 20:09:00,
2013-03-21 16:14:00,41.5,17.8,29.62,SW,219,5.4,8.1,38,0.00,,---,0.00,VWS V14.01,2013-03-21 20:14:00,
2013-03-21 16:19:00,41.2,17.5,29.62,WSW,255,3.6,3.6,38,0.00,,---,0.00,VWS V14.01,2013-03-21 20:19:00,
2013-03-21 16:24:00,40.3,17.3,29.62,NNE,17,6.3,6.3,39,0.00,,---,0.00,VWS V14.01,2013-03-21 20:24:00,
2013-03-21 16:29:00,40.5,17.5,29.62,North,357,2.2,6.3,39,0.00,,---,0.00,VWS V14.01,2013-03-21 20:29:00,
2013-03-21 16:34:00,39.6,16.7,29.62,WNW,300,6.3,7.6,39,0.00,,---,0.00,VWS V14.01,2013-03-21 20:34:00,
2013-03-21 16:39:00,40.5,17.5,29.62,NNW,338,3.1,3.6,39,0.00,,---,0.00,VWS V14.01,2013-03-21 20:39:00,
2013-03-21 16:44:00,39.7,16.8,29.62,North,1,3.1,6.3,39,0.00,,---,0.00,VWS V14.01,2013-03-21 20:44:00,
2013-03-21 16:49:00,39.4,16.5,29.62,NNW,330,0.0,2.2,39,0.00,,---,0.00,VWS V14.01,2013-03-21 20:49:00,
2013-03-21 16:54:00,39.2,16.3,29.62,WSW,244,0.0,0.0,39,0.00,,---,0.00,VWS V14.01,2013-03-21 20:54:00,
2013-03-21 16:59:00,38.7,15.9,29.62,WSW,255,3.6,4.9,39,0.00,,---,0.00,VWS V14.01,2013-03-21 20:59:00,
2013-03-21 17:04:00,38.8,16.0,29.62,SW,227,4.0,4.0,39,0.00,,---,0.00,VWS V14.01,2013-03-21 21:04:00,
2013-03-21 17:09:00,38.5,15.7,29.62,NW,312,2.7,3.1,39,0.00,,---,0.00,VWS V14.01,2013-03-21 21:09:00,
2013-03-21 17:14:00,38.3,15.5,29.62,WSW,252,0.0,4.0,39,0.00,,---,0.00,VWS V14.01,2013-03-21 21:14:00,
2013-03-21 17:19:00,38.7,15.9,29.62,SW,224,5.4,6.3,39,0.00,,---,0.00,VWS V14.01,2013-03-21 21:19:00,
2013-03-21 17:24:00,38.7,15.9,29.62,North,0,3.6,3.6,39,0.00,,---,0.00,VWS V14.01,2013-03-21 21:24:00,
2013-03-21 17:29:00,38.5,15.7,29.62,NW,314,0.0,3.1,39,0.00,,---,0.00,VWS V14.01,2013-03-21 21:29:00,
2013-03-21 17:34:00,38.3,15.5,29.62,WSW,243,6.3,6.3,39,0.00,,---,0.00,VWS V14.01,2013-03-21 21:34:00,
2013-03-21 17:39:00,37.6,14.9,29.62,SW,230,5.4,8.7,39,0.00,,---,0.00,VWS V14.01,2013-03-21 21:39:00,
2013-03-21 17:44:00,37.2,15.1,29.65,NNW,334,3.1,6.3,40,0.00,,---,0.00,VWS V14.01,2013-03-21 21:44:00,
2013-03-21 17:49:00,37.0,15.0,29.65,NW,317,6.7,6.7,40,0.00,,---,0.00,VWS V14.01,2013-03-21 21:49:00,
2013-03-21 17:54:00,37.4,14.7,29.65,WSW,237,0.0,0.0,39,0.00,,---,0.00,VWS V14.01,2013-03-21 21:54:00,
2013-03-21 17:59:00,37.6,14.9,29.65,NW,315,2.7,2.7,39,0.00,,---,0.00,VWS V14.01,2013-03-21 21:59:00,
2013-03-21 18:04:00,37.6,14.9,29.65,NNE,31,8.3,8.3,39,0.00,,---,0.00,VWS V14.01,2013-03-21 22:04:00,
2013-03-21 18:09:00,37.4,14.7,29.65,SSW,200,4.0,4.9,39,0.00,,---,0.00,VWS V14.01,2013-03-21 22:09:00,
2013-03-21 18:14:00,37.0,15.0,29.65,NW,309,8.3,8.7,40,0.00,,---,0.00,VWS V14.01,2013-03-21 22:14:00,
2013-03-21 18:19:00,36.7,14.6,29.65,WNW,296,3.1,4.9,40,0.00,,---,0.00,VWS V14.01,2013-03-21 22:19:00,
2013-03-21 18:24:00,36.0,14.0,29.65,WSW,238,5.8,5.8,40,0.00,,---,0.00,VWS V14.01,2013-03-21 22:24:00,
2013-03-21 18:29:00,35.6,13.7,29.65,West,267,4.0,4.0,40,0.00,,---,0.00,VWS V14.01,2013-03-21 22:29:00,
2013-03-21 18:34:00,35.2,13.4,29.65,SW,220,4.9,4.9,40,0.00,,---,0.00,VWS V14.01,2013-03-21 22:34:00,
2013-03-21 18:39:00,34.9,13.0,29.65,WSW,248,6.3,6.3,40,0.00,,---,0.00,VWS V14.01,2013-03-21 22:39:00,
2013-03-21 18:44:00,34.5,12.7,29.65,West,264,0.0,0.0,40,0.00,,---,0.00,VWS V14.01,2013-03-21 22:44:00,
2013-03-21 18:49:00,34.3,12.5,29.65,SW,224,2.7,5.4,40,0.00,,---,0.00,VWS V14.01,2013-03-21 22:49:00,
2013-03-21 18:54:00,34.0,12.2,29.65,WSW,257,0.0,0.0,40,0.00,,---,0.00,VWS V14.01,2013-03-21 22:54:00,
2013-03-21 18:59:00,33.8,12.1,29.68,WSW,248,0.0,0.0,40,0.00,,---,0.00,VWS V14.01,2013-03-21 22:59:00,
2013-03-21 19:04:00,33.6,11.9,29.68,NW,314,2.2,3.6,40,0.00,,---,0.00,VWS V14.01,2013-03-21 23:04:00,
2013-03-21 19:09:00,33.3,11.6,29.68,NW,311,0.0,0.0,40,0.00,,---,0.00,VWS V14.01,2013-03-21 23:09:00,
2013-03-21 19:14:00,33.3,11.6,29.68,WSW,239,5.4,5.4,40,0.00,,---,0.00,VWS V14.01,2013-03-21 23:14:00,
2013-03-21 19:19:00,33.3,11.6,29.68,WNW,290,5.4,5.4,40,0.00,,---,0.00,VWS V14.01,2013-03-21 23:19:00,
2013-03-21 19:24:00,33.1,11.4,29.68,NW,308,0.0,0.0,40,0.00,,---,0.00,VWS V14.01,2013-03-21 23:24:00,
2013-03-21 19:29:00,32.7,11.1,29.68,WNW,298,2.7,2.7,40,0.00,,---,0.00,VWS V14.01,2013-03-21 23:29:00,
2013-03-21 19:34:00,32.7,11.1,29.68,WSW,249,3.1,4.0,40,0.00,,---,0.00,VWS V14.01,2013-03-21 23:34:00,
2013-03-21 19:39:00,32.4,10.8,29.68,SW,232,3.6,4.0,40,0.00,,---,0.00,VWS V14.01,2013-03-21 23:39:00,
2013-03-21 19:44:00,32.2,10.6,29.68,West,267,0.0,3.6,40,0.00,,---,0.00,VWS V14.01,2013-03-21 23:44:00,
2013-03-21 19:49:00,31.6,10.1,29.68,SW,217,3.6,3.6,40,0.00,,---,0.00,VWS V14.01,2013-03-21 23:49:00,
2013-03-21 19:54:00,31.6,10.1,29.68,WNW,303,0.0,2.7,40,0.00,,---,0.00,VWS V14.01,2013-03-21 23:54:00,
2013-03-21 19:59:00,31.3,9.8,29.68,West,264,0.0,0.0,40,0.00,,---,0.00,VWS V14.01,2013-03-21 23:59:00,
2013-03-21 20:04:00,30.9,9.4,29.68,West,274,2.7,2.7,40,0.00,,---,0.00,VWS V14.01,2013-03-22 00:04:00,
2013-03-21 20:09:00,30.7,9.3,29.68,WNW,292,3.6,3.6,40,0.00,,---,0.00,VWS V14.01,2013-03-22 00:09:00,
2013-03-21 20:14:00,30.7,9.3,29.71,NW,306,0.0,4.0,40,0.00,,---,0.00,VWS V14.01,2013-03-22 00:14:00,
2013-03-21 20:19:00,30.4,9.0,29.71,NNW,345,2.7,2.7,40,0.00,,---,0.00,VWS V14.01,2013-03-22 00:19:00,
2013-03-21 20:24:00,30.2,9.4,29.71,North,357,0.0,2.7,41,0.00,,---,0.00,VWS V14.01,2013-03-22 00:24:00,
2013-03-21 20:29:00,30.2,9.4,29.71,NW,304,0.0,2.7,41,0.00,,---,0.00,VWS V14.01,2013-03-22 00:29:00,
2013-03-21 20:34:00,29.7,8.9,29.71,West,280,0.0,2.2,41,0.00,,---,0.00,VWS V14.01,2013-03-22 00:34:00,
2013-03-21 20:39:00,29.7,8.9,29.71,NW,307,2.2,2.7,41,0.00,,---,0.00,VWS V14.01,2013-03-22 00:39:00,
2013-03-21 20:44:00,29.7,8.9,29.71,NW,307,0.0,0.0,41,0.00,,---,0.00,VWS V14.01,2013-03-22 00:44:00,
2013-03-21 20:49:00,29.3,8.5,29.71,NNW,331,0.0,0.0,41,0.00,,---,0.00,VWS V14.01,2013-03-22 00:49:00,
2013-03-21 20:54:00,29.1,8.4,29.71,WNW,302,0.0,0.0,41,0.00,,---,0.00,VWS V14.01,2013-03-22 00:54:00,
2013-03-21 20:59:00,29.3,8.5,29.71,SW,225,3.1,3.6,41,0.00,,---,0.00,VWS V14.01,2013-03-22 00:59:00,
2013-03-21 21:04:00,29.5,8.7,29.71,North,357,2.7,3.1,41,0.00,,---,0.00,VWS V14.01,2013-03-22 01:04:00,
2013-03-21 21:09:00,29.3,8.5,29.71,WNW,282,0.0,2.7,41,0.00,,---,0.00,VWS V14.01,2013-03-22 01:09:00,
2013-03-21 21:14:00,29.3,8.5,29.71,West,271,3.1,3.6,41,0.00,,---,0.00,VWS V14.01,2013-03-22 01:14:00,
2013-03-21 21:19:00,29.1,8.4,29.71,West,273,0.0,0.0,41,0.00,,---,0.00,VWS V14.01,2013-03-22 01:19:00,
2013-03-21 21:24:00,29.1,8.4,29.71,WSW,248,0.0,0.0,41,0.00,,---,0.00,VWS V14.01,2013-03-22 01:24:00,
2013-03-21 21:29:00,28.8,8.0,29.71,West,261,4.0,4.0,41,0.00,,---,0.00,VWS V14.01,2013-03-22 01:29:00,
2013-03-21 21:34:00,28.9,8.2,29.71,West,264,3.6,3.6,41,0.00,,---,0.00,VWS V14.01,2013-03-22 01:34:00,
2013-03-21 21:39:00,28.9,8.2,29.71,WSW,249,2.2,6.3,41,0.00,,---,0.00,VWS V14.01,2013-03-22 01:39:00,
2013-03-21 21:44:00,28.8,8.0,29.71,WSW,237,0.0,0.0,41,0.00,,---,0.00,VWS V14.01,2013-03-22 01:44:00,
2013-03-21 21:49:00,28.6,7.9,29.71,North,6,2.7,3.6,41,0.00,,---,0.00,VWS V14.01,2013-03-22 01:49:00,
2013-03-21 21:54:00,28.8,8.0,29.71,WNW,295,4.0,4.0,41,0.00,,---,0.00,VWS V14.01,2013-03-22 01:54:00,
2013-03-21 21:59:00,28.8,8.0,29.71,WNW,302,2.7,4.0,41,0.00,,---,0.00,VWS V14.01,2013-03-22 01:59:00,
2013-03-21 22:04:00,28.6,7.9,29.71,West,270,3.1,3.1,41,0.00,,---,0.00,VWS V14.01,2013-03-22 02:04:00,
2013-03-21 22:09:00,28.4,7.7,29.71,WSW,249,2.7,3.6,41,0.00,,---,0.00,VWS V14.01,2013-03-22 02:09:00,
2013-03-21 22:14:00,28.6,7.9,29.74,WSW,241,0.0,4.0,41,0.00,,---,0.00,VWS V14.01,2013-03-22 02:14:00,
2013-03-21 22:19:00,28.4,7.7,29.74,WSW,237,5.4,5.4,41,0.00,,---,0.00,VWS V14.01,2013-03-22 02:19:00,
2013-03-21 22:24:00,28.6,7.9,29.74,West,279,2.7,4.9,41,0.00,,---,0.00,VWS V14.01,2013-03-22 02:24:00,
2013-03-21 22:29:00,28.4,7.7,29.74,West,263,5.4,5.4,41,0.00,,---,0.00,VWS V14.01,2013-03-22 02:29:00,
2013-03-21 22:34:00,28.4,7.7,29.74,WNW,291,3.1,3.6,41,0.00,,---,0.00,VWS V14.01,2013-03-22 02:34:00,
2013-03-21 22:39:00,28.2,7.6,29.74,WSW,257,4.0,4.0,41,0.00,,---,0.00,VWS V14.01,2013-03-22 02:39:00,
2013-03-21 22:44:00,28.0,7.4,29.74,WSW,253,2.7,2.7,41,0.00,,---,0.00,VWS V14.01,2013-03-22 02:44:00,
2013-03-21 22:49:00,27.9,7.2,29.74,WSW,250,2.7,3.6,41,0.00,,---,0.00,VWS V14.01,2013-03-22 02:49:00,
2013-03-21 22:54:00,27.9,7.2,29.74,WSW,254,3.6,3.6,41,0.00,,---,0.00,VWS V14.01,2013-03-22 02:54:00,
2013-03-21 22:59:00,27.9,7.2,29.74,WSW,247,4.0,4.0,41,0.00,,---,0.00,VWS V14.01,2013-03-22 02:59:00,
2013-03-21 23:04:00,27.7,7.1,29.74,West,278,3.1,3.1,41,0.00,,---,0.00,VWS V14.01,2013-03-22 03:04:00,
2013-03-21 23:09:00,27.7,7.1,29.74,WSW,238,0.0,0.0,41,0.00,,---,0.00,VWS V14.01,2013-03-22 03:09:00,
2013-03-21 23:14:00,27.5,6.9,29.74,WSW,252,0.0,0.0,41,0.00,,---,0.00,VWS V14.01,2013-03-22 03:14:00,
2013-03-21 23:19:00,27.0,6.4,29.74,WSW,252,0.0,0.0,41,0.00,,---,0.00,VWS V14.01,2013-03-22 03:19:00,
2013-03-21 23:24:00,27.0,6.4,29.74,WSW,249,0.0,0.0,41,0.00,,---,0.00,VWS V14.01,2013-03-22 03:24:00,
2013-03-21 23:29:00,26.8,6.2,29.74,WSW,240,0.0,2.7,41,0.00,,---,0.00,VWS V14.01,2013-03-22 03:29:00,
2013-03-21 23:34:00,26.8,6.2,29.74,WSW,254,3.1,3.1,41,0.00,,---,0.00,VWS V14.01,2013-03-22 03:34:00,
2013-03-21 23:39:00,26.8,6.2,29.74,WSW,248,3.1,3.1,41,0.00,,---,0.00,VWS V14.01,2013-03-22 03:39:00,
2013-03-21 23:44:00,26.8,6.2,29.74,West,264,3.6,3.6,41,0.00,,---,0.00,VWS V14.01,2013-03-22 03:44:00,
2013-03-21 23:49:00,26.8,6.2,29.74,SW,227,3.6,3.6,41,0.00,,---,0.00,VWS V14.01,2013-03-22 03:49:00,
2013-03-21 23:54:00,26.8,6.2,29.74,WSW,253,0.0,2.2,41,0.00,,---,0.00,VWS V14.01,2013-03-22 03:54:00,
2013-03-21 23:59:00,26.4,6.4,29.74,WSW,253,0.0,2.2,42,0.00,,---,0.00,VWS V14.01,2013-03-22 03:59:00,